Location: ?????
(31.8092°N, 35.2590°E)
Time: 20:01:19
(UTC+00:00)

Cosmos 1340 - Pass Details

Date: 20 June 2021
Orbit: 498 x 504 km, 81.2° (Epoch: 31 July)

Event Time Altitude Azimuth Distance (km) Brightness Sun altitude
Exits shadow 19:32:28 30° 283° (WNW) 924 4.3 -26.8°
Drops below altitude 10° 19:35:46 10° 344° (NNW) 1,717 6.2 -27.2°
Sets 19:38:05 0° 356° (N) 2,606 7.2 -27.5°
